TimeEST,TemperatureF,Dew PointF,Humidity,Sea Level PressureIn,VisibilityMPH,Wind Direction,Wind SpeedMPH,Gust SpeedMPH,PrecipitationIn,Events,Conditions,WindDirDegrees,DateUTC
12:15 AM,32.5,29.1,87,29.58,10.0,West,19.6,31.1,N/A,,Overcast,270,2013-01-31 05:15:00
12:35 AM,32.5,28.9,87,29.60,10.0,West,20.7,32.2,N/A,,Overcast,270,2013-01-31 05:35:00
12:55 AM,32.5,28.0,83,29.62,10.0,West,18.4,39.1,N/A,,Overcast,260,2013-01-31 05:55:00
1:15 AM,32.5,28.8,86,29.64,10.0,West,27.6,34.5,N/A,,Overcast,260,2013-01-31 06:15:00
1:35 AM,32.5,28.6,85,29.65,10.0,West,21.9,33.4,N/A,,Overcast,270,2013-01-31 06:35:00
1:55 AM,31.8,27.5,84,29.67,10.0,West,17.3,26.5,N/A,,Overcast,260,2013-01-31 06:55:00
2:15 AM,30.2,24.8,80,29.68,10.0,West,21.9,38.0,N/A,,Overcast,270,2013-01-31 07:15:00
2:35 AM,30.2,25.3,82,29.70,10.0,West,24.2,35.7,N/A,,Overcast,260,2013-01-31 07:35:00
2:55 AM,28.6,23.0,80,29.72,10.0,West,25.3,38.0,N/A,,Overcast,270,2013-01-31 07:55:00
3:15 AM,28.2,22.8,80,29.72,10.0,WSW,18.4,29.9,N/A,,Overcast,250,2013-01-31 08:15:00
3:35 AM,27.9,22.8,81,29.74,10.0,West,31.1,39.1,N/A,,Overcast,260,2013-01-31 08:35:00
3:55 AM,27.9,21.7,78,29.75,10.0,West,19.6,33.4,N/A,,Overcast,270,2013-01-31 08:55:00
4:15 AM,27.9,19.6,71,29.76,10.0,West,24.2,38.0,N/A,,Overcast,270,2013-01-31 09:15:00
4:35 AM,27.9,20.5,74,29.75,10.0,West,21.9,28.8,N/A,,Overcast,260,2013-01-31 09:35:00
4:55 AM,27.9,22.3,80,29.76,10.0,West,19.6,33.4,N/A,,Overcast,260,2013-01-31 09:55:00
5:15 AM,27.9,21.0,75,29.76,10.0,West,23.0,32.2,N/A,Snow,Light Snow,270,2013-01-31 10:15:00
5:35 AM,27.9,20.7,74,29.77,10.0,West,21.9,29.9,N/A,,Overcast,270,2013-01-31 10:35:00
5:55 AM,27.9,19.9,72,29.78,10.0,West,24.2,36.8,N/A,Snow,Light Snow,280,2013-01-31 10:55:00
6:15 AM,27.9,18.5,68,29.78,10.0,West,24.2,34.5,N/A,,Overcast,270,2013-01-31 11:15:00
6:35 AM,27.9,19.6,71,29.79,10.0,West,17.3,27.6,N/A,,Overcast,270,2013-01-31 11:35:00
7:15 AM,27.9,22.1,79,29.81,10.0,WSW,17.3,23.0,N/A,Snow,Light Snow,250,2013-01-31 12:15:00
7:55 AM,25.3,21.7,86,29.84,5.0,West,11.5,26.5,N/A,Snow,Light Snow,270,2013-01-31 12:55:00
8:15 AM,25.3,19.8,79,29.85,10.0,West,16.1,28.8,N/A,Snow,Light Snow,260,2013-01-31 13:15:00
8:35 AM,25.3,16.7,70,29.88,10.0,West,31.1,41.4,N/A,,Overcast,260,2013-01-31 13:35:00
8:55 AM,25.3,16.3,69,29.89,10.0,West,21.9,33.4,N/A,,Overcast,260,2013-01-31 13:55:00
9:15 AM,25.3,16.3,69,29.90,10.0,West,13.8,33.4,N/A,,Overcast,270,2013-01-31 14:15:00
9:35 AM,25.3,16.3,69,29.91,10.0,West,16.1,27.6,N/A,Snow,Light Snow,270,2013-01-31 14:35:00
9:55 AM,25.3,15.8,67,29.91,10.0,West,18.4,25.3,N/A,,Overcast,260,2013-01-31 14:55:00
10:15 AM,27.9,18.5,68,29.92,10.0,West,13.8,31.1,N/A,,Overcast,270,2013-01-31 15:15:00
10:35 AM,27.9,20.1,73,29.92,10.0,WSW,17.3,24.2,N/A,,Overcast,240,2013-01-31 15:35:00
10:55 AM,27.9,20.5,74,29.92,10.0,WSW,17.3,25.3,N/A,,Overcast,250,2013-01-31 15:55:00
11:15 AM,27.9,19.4,71,29.93,10.0,WSW,18.4,24.2,N/A,,Overcast,250,2013-01-31 16:15:00
11:35 AM,27.9,18.5,68,29.92,10.0,West,15.0,21.9,N/A,,Overcast,260,2013-01-31 16:35:00
11:55 AM,27.9,17.6,65,29.92,10.0,WSW,20.7,28.8,N/A,,Overcast,250,2013-01-31 16:55:00
12:15 PM,28.0,17.6,65,29.92,10.0,WSW,17.3,26.5,N/A,,Overcast,250,2013-01-31 17:15:00
12:35 PM,28.8,17.6,63,29.92,10.0,WSW,20.7,27.6,N/A,,Overcast,250,2013-01-31 17:35:00
12:55 PM,30.2,19.4,64,29.91,10.0,WSW,21.9,31.1,N/A,,Overcast,240,2013-01-31 17:55:00
1:15 PM,30.4,20.8,68,29.92,10.0,WSW,20.7,26.5,N/A,,Overcast,250,2013-01-31 18:15:00
1:35 PM,30.2,20.7,68,29.92,10.0,WSW,19.6,28.8,N/A,,Mostly Cloudy,240,2013-01-31 18:35:00
1:55 PM,30.2,22.6,73,29.92,10.0,WSW,19.6,28.8,N/A,,Overcast,250,2013-01-31 18:55:00
2:15 PM,30.2,20.3,67,29.90,10.0,WSW,26.5,33.4,N/A,,Overcast,240,2013-01-31 19:15:00
2:35 PM,32.5,20.1,60,29.91,10.0,WSW,15.0,24.2,N/A,,Mostly Cloudy,250,2013-01-31 19:35:00
2:55 PM,32.5,20.1,60,29.90,10.0,WSW,19.6,26.5,N/A,,Mostly Cloudy,250,2013-01-31 19:55:00
3:15 PM,32.5,21.0,63,29.90,10.0,WSW,12.7,28.8,N/A,,Overcast,250,2013-01-31 20:15:00
3:35 PM,31.8,22.1,67,29.91,10.0,WSW,18.4,28.8,N/A,,Mostly Cloudy,250,2013-01-31 20:35:00
3:55 PM,32.5,22.1,65,29.90,10.0,WSW,17.3,26.5,N/A,,Mostly Cloudy,240,2013-01-31 20:55:00
4:15 PM,30.2,21.2,69,29.91,10.0,WSW,17.3,26.5,N/A,Snow,Light Snow,250,2013-01-31 21:15:00
4:35 PM,32.5,21.9,65,29.90,10.0,WSW,20.7,24.2,N/A,,Overcast,240,2013-01-31 21:35:00
4:55 PM,30.2,22.1,72,29.91,7.0,West,13.8,23.0,N/A,Snow,Light Snow,270,2013-01-31 21:55:00
5:15 PM,30.2,22.3,72,29.90,10.0,West,11.5,-,N/A,,Mostly Cloudy,260,2013-01-31 22:15:00
5:35 PM,30.2,20.3,67,29.89,10.0,WSW,11.5,-,N/A,,Overcast,240,2013-01-31 22:35:00
5:55 PM,30.2,19.8,65,29.91,10.0,WSW,18.4,26.5,N/A,,Mostly Cloudy,240,2013-01-31 22:55:00
6:15 PM,30.2,19.2,64,29.91,10.0,WSW,15.0,21.9,N/A,,Mostly Cloudy,250,2013-01-31 23:15:00
6:35 PM,30.2,19.9,66,29.91,10.0,West,10.4,17.3,N/A,,Overcast,260,2013-01-31 23:35:00
6:55 PM,29.1,21.0,72,29.92,10.0,West,15.0,20.7,N/A,Snow,Light Snow,260,2013-01-31 23:55:00
7:15 PM,28.2,21.9,77,29.92,7.0,West,13.8,19.6,N/A,Snow,Light Snow,270,2013-02-01 00:15:00
7:35 PM,27.9,24.6,88,29.93,2.5,West,11.5,20.7,N/A,Snow,Light Snow,270,2013-02-01 00:35:00
7:55 PM,27.9,26.6,95,29.94,1.5,West,12.7,17.3,N/A,Snow,Light Snow,280,2013-02-01 00:55:00
8:15 PM,27.9,27.3,98,29.94,1.2,West,10.4,24.2,N/A,Snow,Light Snow,270,2013-02-01 01:15:00
8:35 PM,25.3,24.3,96,29.95,1.0,WNW,10.4,19.6,N/A,Snow,Snow,300,2013-02-01 01:35:00
8:55 PM,25.3,23.7,94,29.95,3.0,NW,11.5,-,N/A,Snow,Light Snow,310,2013-02-01 01:55:00
9:15 PM,24.8,21.4,87,29.96,7.0,NW,17.3,23.0,N/A,,Overcast,320,2013-02-01 02:15:00
9:35 PM,22.8,18.3,83,29.96,10.0,NW,12.7,25.3,N/A,,Overcast,310,2013-02-01 02:35:00
9:55 PM,22.8,17.8,81,29.98,10.0,NW,11.5,17.3,N/A,,Overcast,310,2013-02-01 02:55:00
10:15 PM,20.5,17.1,87,29.99,2.0,NW,15.0,25.3,N/A,Snow,Light Snow,310,2013-02-01 03:15:00
10:35 PM,19.6,16.3,87,30.00,3.0,NW,10.4,17.3,N/A,Snow,Light Snow,320,2013-02-01 03:35:00
10:55 PM,18.9,14.0,81,30.01,5.0,NW,12.7,26.5,N/A,Snow,Light Snow,320,2013-02-01 03:55:00
11:15 PM,18.1,13.6,83,30.03,7.0,WNW,11.5,20.7,N/A,,Overcast,300,2013-02-01 04:15:00
11:35 PM,17.6,14.0,86,30.04,2.5,WNW,16.1,25.3,N/A,Snow,Light Snow,300,2013-02-01 04:35:00
11:55 PM,16.5,9.7,74,30.06,5.0,WNW,16.1,29.9,N/A,,Haze,300,2013-02-01 04:55:00